Starlink 31177

operational
NORAD ID: 58873 Int'l Des: 2024-019 Owner: SPXS Country: US Constellation: starlink
LEOCIRCULAR

About Starlink 31177

Description loading...

Live Position

Loading 3D Globe...

Upcoming Passes

Altitude History

Altitude vs Time

uPlot chart will show altitude changes over time

Two-Line Element Set

1 58873U 24019W 25352.07496858 .00000651 00000-0 33177-4 0 9998
2 58873 42.9984 349.5615 0001576 273.6112 86.4560 15.27582095106609
Epoch: Dec 18, 2025 • Age: 28 hours

Current Status

Altitude 484.2 km
Velocity 7.63 km/s
Sub-Earth Point 29.93°N, 161.1°W
Launch Date Jan 29, 2024
Age 1.8 years
Type internet

Technical Details

Classification Payload
Mass 730.00 kg
Dry Mass 700.00 kg
Total Mass 730.00 kg
Length 0.30 m
Diameter 4.10 m
Span 29.00 m
Shape Box + pan
Manufacturer SPXS
Bus Type Starlink V2M
Phase Status In Orbit
Owner/State SPXS/US

Large Constellations

Loading constellations...